IRIDIUM 61

Last updated on Wed Nov 29 2017 00:19:02 GMT+0000 (Coordinated Universal Time)

1 25263U 98018B 17332.35110342 .00000202 00000-0 64983-4 0 9997 2 25263 86.3984 250.1927 0002037 82.5525 277.5902 14.34221373 30390

Satellite not in orbit

IRIDIUM 61